Weather History for Three Rivers, MI

Change the Weather History Date:

Friday, March 1, 2013

  Actual Average Record
Temperature  
Mean Temperature 28 °F -  
Max Temperature 31 °F 39 °F 58 °F (1972)
Min Temperature 24 °F 21 °F -7 °F (1967)
Degree Days  
Heating Degree Days 38    
Moisture  
Dew Point 21 °F    
Average Humidity 74    
Maximum Humidity 87    
Minimum Humidity 66    
Precipitation  
Precipitation 0.00 in - - ()
Sea Level Pressure  
Sea Level Pressure 30.05 in    
Wind  
Wind Speed 7 mph (NNE)    
Max Wind Speed 14 mph    
Max Gust Speed -    
Visibility 10 miles    
Events      
Averages and records for this station are not official NWS values.
T = Trace of Precipitation, MM = Missing Value Source: NWS Daily Summary

Daily Weather History Graph

Daily Weather History Graph

Search for Another Location

Airport:

Trip Planner

Search our weather history database for the weather conditions in past years. The results will help you decide how hot, cold, wet, or windy it might be!

Date:

Astronomy

Mar. 01, 2013 Rise Set
Actual Time 7:16 AM EST 6:32 PM EST
Civil Twilight 6:49 AM EST 7:00 PM EST
Nautical Twilight 6:16 AM EST 7:33 PM EST
Astronomical Twilight 5:44 AM EST 8:05 PM EST
Moon 11:11 PM EST (3/1) 8:58 AM EST (3/1)
Length of Visible Light 12h 11m
Length of Day
11h 15m
Waning Gibbous, 83% of the Moon is Illuminated
Mar 1
Waning Gibbous
Mar 4
Last Quarter
Mar 11
New
Mar 19
First Quarter
Mar 27
Full

Hourly Weather History & Observations

Time (EST) Temp. Windchill Dew Point Humidity Pressure Visibility Wind Dir Wind Speed Gust Speed Precip Events Conditions
12:14 AM 31.6 °F 27.0 °F 27.1 °F 83% 29.96 in 10.0 mi North 4.6 mph - N/A   Overcast
12:35 AM 31.1 °F 25.4 °F 27.3 °F 86% 29.96 in 10.0 mi North 5.8 mph - N/A   Overcast
12:54 AM 31.1 °F 24.5 °F 27.5 °F 87% 29.96 in 10.0 mi North 6.9 mph - N/A   Overcast
1:15 AM 31.1 °F 24.5 °F 27.5 °F 87% 29.97 in 10.0 mi North 6.9 mph - N/A   Overcast
1:35 AM 31.1 °F 23.7 °F 27.5 °F 87% 29.97 in 10.0 mi NNE 8.1 mph - N/A   Overcast
1:54 AM 31.1 °F 24.5 °F 26.6 °F 83% 29.98 in 10.0 mi NNE 6.9 mph - N/A   Overcast
2:15 AM 31.1 °F 23.7 °F 26.1 °F 82% 29.98 in 10.0 mi NNE 8.1 mph - N/A   Overcast
2:34 AM 30.6 °F 22.4 °F 24.6 °F 79% 29.98 in 10.0 mi NNE 9.2 mph - N/A   Overcast
2:55 AM 30.2 °F 23.4 °F 24.1 °F 78% 29.98 in 10.0 mi NNE 6.9 mph - N/A   Overcast
3:15 AM 30.0 °F 24.1 °F 23.9 °F 78% 29.98 in 10.0 mi NNE 5.8 mph - N/A   Overcast
3:34 AM 29.7 °F 22.0 °F 23.5 °F 78% 29.97 in 10.0 mi NNE 8.1 mph - N/A   Overcast
4:15 AM 29.1 °F 20.6 °F 22.8 °F 77% 29.98 in 10.0 mi NE 9.2 mph - N/A   Overcast
4:55 AM 29.1 °F 23.0 °F 23.0 °F 78% 29.99 in 10.0 mi NNE 5.8 mph - N/A   Overcast
5:15 AM 29.1 °F 21.3 °F 22.5 °F 76% 29.99 in 10.0 mi NNE 8.1 mph - N/A   Overcast
5:34 AM 28.9 °F - 22.5 °F 77% 30.00 in 10.0 mi Calm Calm - N/A   Overcast
5:55 AM 28.9 °F 25.2 °F 22.8 °F 78% 30.00 in 10.0 mi NNE 3.5 mph - N/A   Overcast
6:14 AM 28.8 °F 23.7 °F 22.3 °F 77% 30.00 in 10.0 mi NNE 4.6 mph - N/A   Overcast
6:34 AM 28.8 °F 25.0 °F 21.9 °F 76% 30.01 in 10.0 mi NNE 3.5 mph - N/A   Overcast
7:14 AM 28.4 °F 22.2 °F 21.2 °F 74% 30.02 in 10.0 mi NE 5.8 mph - N/A   Overcast
7:35 AM 28.4 °F 22.2 °F 21.2 °F 74% 30.03 in 10.0 mi NE 5.8 mph - N/A   Overcast
7:55 AM 28.4 °F 23.3 °F 21.6 °F 76% 30.04 in 10.0 mi NNE 4.6 mph - N/A   Overcast
8:35 AM 28.4 °F 22.2 °F 21.6 °F 76% 30.05 in 10.0 mi NNE 5.8 mph - N/A   Overcast
8:55 AM 28.4 °F 22.2 °F 21.6 °F 76% 30.05 in 10.0 mi NNE 5.8 mph - N/A   Overcast
9:14 AM 28.4 °F 22.2 °F 21.6 °F 76% 30.05 in 10.0 mi North 5.8 mph - N/A   Overcast
9:35 AM 28.8 °F 20.9 °F 21.9 °F 76% 30.06 in 10.0 mi NNE 8.1 mph - N/A   Overcast
9:55 AM 28.8 °F 21.7 °F 21.7 °F 75% 30.06 in 10.0 mi NNE 6.9 mph - N/A   Overcast
10:14 AM 29.3 °F 23.2 °F 21.7 °F 73% 30.06 in 10.0 mi NE 5.8 mph - N/A   Overcast
10:35 AM 29.7 °F 23.7 °F 22.1 °F 73% 30.07 in 10.0 mi NE 5.8 mph - N/A   Overcast
10:55 AM 29.8 °F 22.2 °F 22.3 °F 73% 30.07 in 10.0 mi North 8.1 mph - N/A   Overcast
11:14 AM 30.0 °F 21.7 °F 22.1 °F 72% 30.07 in 10.0 mi NNE 9.2 mph - N/A   Overcast
11:35 AM 30.2 °F 21.9 °F 21.4 °F 70% 30.08 in 10.0 mi NE 9.2 mph - N/A   Overcast
11:54 AM 30.4 °F 22.9 °F 21.7 °F 70% 30.08 in 10.0 mi NNE 8.1 mph - N/A   Overcast
12:15 PM 30.2 °F 22.6 °F 21.2 °F 69% 30.08 in 10.0 mi NE 8.1 mph - N/A   Overcast
12:34 PM 29.7 °F 20.1 °F 20.5 °F 69% 30.08 in 10.0 mi NNE 11.5 mph - N/A   Overcast
1:15 PM 30.0 °F 22.4 °F 19.8 °F 66% 30.07 in 10.0 mi North 8.1 mph - N/A   Overcast
1:34 PM 29.8 °F 21.5 °F 19.9 °F 67% 30.07 in 10.0 mi NNE 9.2 mph - N/A   Overcast
1:55 PM 29.7 °F 22.0 °F 19.8 °F 67% 30.06 in 10.0 mi NNE 8.1 mph - N/A   Overcast
2:15 PM 29.8 °F 19.8 °F 19.9 °F 67% 30.06 in 10.0 mi NE 12.7 mph - N/A   Overcast
2:34 PM 29.5 °F 21.8 °F 20.1 °F 68% 30.05 in 10.0 mi NNE 8.1 mph - N/A   Overcast
2:55 PM 29.3 °F 18.6 °F 19.9 °F 68% 30.05 in 10.0 mi NE 13.8 mph - N/A   Mostly Cloudy
3:14 PM 29.1 °F 20.0 °F 19.9 °F 69% 30.05 in 10.0 mi NNE 10.4 mph - N/A   Scattered Clouds
3:35 PM 28.4 °F 19.1 °F 19.4 °F 69% 30.05 in 10.0 mi NE 10.4 mph - N/A   Scattered Clouds
3:55 PM 28.4 °F 19.7 °F 19.2 °F 69% 30.06 in 10.0 mi NE 9.2 mph - N/A   Scattered Clouds
4:14 PM 28.4 °F 19.7 °F 18.9 °F 67% 30.06 in 10.0 mi NNE 9.2 mph - N/A   Scattered Clouds
4:35 PM 28.4 °F 21.2 °F 19.2 °F 69% 30.07 in 10.0 mi NNE 6.9 mph - N/A   Clear
4:55 PM 28.2 °F 21.0 °F 19.4 °F 70% 30.07 in 10.0 mi NNE 6.9 mph - N/A   Scattered Clouds
5:14 PM 27.5 °F 20.2 °F 18.9 °F 70% 30.07 in 10.0 mi NE 6.9 mph - N/A   Mostly Cloudy
5:35 PM 27.0 °F 19.5 °F 19.0 °F 72% 30.08 in 10.0 mi NE 6.9 mph - N/A   Overcast
5:55 PM 26.6 °F 17.5 °F 18.5 °F 71% 30.08 in 10.0 mi ENE 9.2 mph - N/A   Overcast
6:14 PM 25.9 °F 16.6 °F 18.3 °F 73% 30.09 in 10.0 mi ENE 9.2 mph - N/A   Overcast
6:35 PM 25.7 °F 18.0 °F 18.3 °F 74% 30.10 in 10.0 mi ENE 6.9 mph - N/A   Overcast
6:54 PM 25.5 °F 16.9 °F 18.3 °F 74% 30.10 in 10.0 mi NE 8.1 mph - N/A   Overcast
7:14 PM 25.5 °F 17.8 °F 18.1 °F 74% 30.10 in 10.0 mi NNE 6.9 mph - N/A   Overcast
7:35 PM 25.3 °F 16.0 °F 18.0 °F 74% 30.11 in 10.0 mi NE 9.2 mph - N/A   Overcast
7:54 PM 24.8 °F 16.9 °F 17.6 °F 74% 30.12 in 10.0 mi NNE 6.9 mph - N/A   Overcast
8:15 PM 24.6 °F 17.7 °F 17.6 °F 75% 30.12 in 10.0 mi NE 5.8 mph - N/A   Overcast
8:35 PM 24.6 °F 17.7 °F 16.7 °F 72% 30.12 in 10.0 mi NNE 5.8 mph - N/A   Overcast
8:54 PM 24.8 °F 20.5 °F 16.7 °F 71% 30.12 in 10.0 mi NE 3.5 mph - N/A   Overcast
9:15 PM 24.8 °F - 17.2 °F 73% 30.13 in 10.0 mi Calm Calm - N/A   Overcast
9:35 PM 25.2 °F - 17.2 °F 72% 30.13 in 10.0 mi Calm Calm - N/A   Overcast
9:54 PM 25.5 °F 21.3 °F 17.6 °F 72% 30.13 in 10.0 mi NW 3.5 mph - N/A   Overcast
10:15 PM 25.3 °F 21.1 °F 17.6 °F 72% 30.13 in 10.0 mi NNW 3.5 mph - N/A   Overcast
10:35 PM 25.2 °F 19.5 °F 17.6 °F 73% 30.12 in 10.0 mi NNW 4.6 mph - N/A   Overcast
10:54 PM 25.2 °F 20.9 °F 17.6 °F 73% 30.12 in 10.0 mi NNW 3.5 mph - N/A   Overcast
11:15 PM 25.3 °F 21.1 °F 17.6 °F 72% 30.12 in 10.0 mi NNW 3.5 mph - N/A   Overcast
11:35 PM 25.7 °F 21.5 °F 17.8 °F 72% 30.11 in 10.0 mi NW 3.5 mph - N/A   Overcast
11:54 PM 25.5 °F 21.3 °F 17.8 °F 72% 30.11 in 10.0 mi NNW 3.5 mph - N/A   Overcast